Location: Unspecified
(0.0000°N, 0.0000°E)
Time: 21:05:53
(UTC+00:00)

USA 238 - Visible Passes

Search period start: 04 June 2023 00:00
Search period end: 14 June 2023 00:00
Orbit: 943 x 1270 km, 63.4° (Epoch: 22 May)

Date Brightness Start Highest point End Pass type
(mag) Time Alt. Az. Time Alt. Az. Time Alt. Az.
04 Jun 6.3 04:18:02 10° NNE 04:24:05 24° ENE 04:30:08 10° ESE visible
05 Jun 6.9 03:36:25 10° NE 03:39:18 12° ENE 03:42:11 10° E visible
05 Jun 4.1 05:22:17 10° NNW 05:30:11 79° WSW 05:38:05 10° SSE visible
06 Jun 4.6 04:37:45 10° NNW 04:45:30 61° ENE 04:53:16 10° SE visible
07 Jun 5.6 03:53:51 10° N 04:00:49 34° ENE 04:07:48 10° SE visible
08 Jun 6.3 03:10:54 10° NNE 03:16:05 19° ENE 03:21:16 10° ESE visible
08 Jun 4.1 04:59:11 10° NW 05:06:54 57° WSW 05:14:36 10° S visible
09 Jun 4.0 04:14:18 10° NNW 04:22:13 84° ENE 04:30:08 10° SSE visible
10 Jun 4.8 03:30:01 10° N 03:37:32 49° ENE 03:45:04 10° SE visible
10 Jun 5.0 05:22:30 10° WNW 05:28:20 22° WSW 05:34:10 10° SSW visible
11 Jun 5.7 02:46:24 10° NNE 02:52:50 27° ENE 02:59:16 10° ESE visible
11 Jun 4.3 04:36:21 10° NW 04:43:36 40° WSW 04:50:52 10° S visible
12 Jun 6.3 02:04:09 10° NE 02:08:05 14° ENE 02:12:01 10° E visible
12 Jun 3.9 03:51:04 10° NNW 03:58:55 71° WSW 04:06:47 10° SSE visible
13 Jun 4.3 03:06:25 10° NNW 03:18:15 32° SE 03:22:06 10° SSE visible
13 Jun 5.3 05:06:23 15° SW 05:06:23 15° SW 05:09:16 10° SSW visible
